| time (UTC) | temp C | wind direction | speed KPH | gust KPH | rain 1hr cm | rain 24hr cm | rain mn cm | humidity % | barometer mb |
| 20260901210139 | 25 | 148 | 0.0 | 0.0 | 0.00 | 0.23 | 0.20 | 85 | 1013.8 |
| 20260901204636 | 25 | 141 | 0.0 | 0.0 | 0.00 | 0.23 | 0.20 | 85 | 1013.8 |
| 20260901203154 | 25 | 141 | 0.0 | 0.0 | 0.00 | 0.23 | 0.20 | 85 | 1013.7 |
| 20260901201629 | 25 | 143 | 0.0 | 0.0 | 0.00 | 0.23 | 0.20 | 85 | 1013.6 |
| 20260901200145 | 25 | 144 | 0.0 | 0.0 | 0.00 | 0.23 | 0.20 | 85 | 1013.5 |
| 20260901194630 | 25 | 151 | 0.0 | 0.0 | 0.00 | 0.23 | 0.20 | 86 | 1013.6 |
| 20260901193136 | 25 | 151 | 0.0 | 0.0 | 0.00 | 0.23 | 0.20 | 86 | 1013.7 |
| 20260901191651 | 25 | 151 | 0.0 | 0.0 | 0.00 | 0.23 | 0.20 | 88 | 1013.7 |
| 20260901190129 | 25 | 151 | 0.0 | 0.0 | 0.00 | 0.23 | 0.20 | 88 | 1013.6 |
| 20260901184635 | 25 | 151 | 0.0 | 1.6 | 0.00 | 0.23 | 0.20 | 88 | 1013.6 |
| 20260901183150 | 25 | 169 | 0.0 | 1.6 | 0.00 | 0.23 | 0.20 | 87 | 1013.5 |
| 20260901181626 | 25 | 162 | 0.0 | 1.6 | 0.00 | 0.23 | 0.20 | 88 | 1013.3 |
| 20260901180130 | 25 | 148 | 0.0 | 1.6 | 0.00 | 0.23 | 0.20 | 87 | 1013.0 |
| 20260901174625 | 25 | 155 | 0.0 | 1.6 | 0.00 | 0.23 | 0.20 | 89 | 1012.9 |
| 20260901173140 | 25 | 150 | 0.0 | 0.0 | 0.00 | 0.23 | 0.20 | 88 | 1013.1 |
| 20260901171636 | 25 | 147 | 0.0 | 3.2 | 0.00 | 0.23 | 0.20 | 87 | 1012.8 |
| 20260901170135 | 25 | 129 | 0.0 | 1.6 | 0.00 | 0.23 | 0.20 | 88 | 1012.8 |
| 20260901164645 | 25 | 128 | 0.0 | 1.6 | 0.00 | 0.23 | 0.20 | 89 | 1012.8 |
| 20260901163136 | 24 | 129 | 0.0 | 1.6 | 0.00 | 0.23 | 0.20 | 92 | 1012.8 |
| 20260901161625 | 23 | 125 | 1.6 | 3.2 | 0.00 | 0.23 | 0.20 | 93 | 1012.8 |
| 20260901160135 | 23 | 120 | 0.0 | 1.6 | 0.00 | 0.23 | 0.20 | 95 | 1012.7 |
| 20260901154643 | 22 | 110 | 0.0 | 0.0 | 0.00 | 0.23 | 0.20 | 97 | 1012.8 |
| 20260901153130 | 22 | 110 | 0.0 | 1.6 | 0.00 | 0.23 | 0.20 | 98 | 1013.0 |
| 20260901151707 | 21 | 86 | 0.0 | 1.6 | 0.00 | 0.23 | 0.20 | 98 | 1012.8 |
| 20260901150133 | 21 | 121 | 0.0 | 0.0 | 0.00 | 0.23 | 0.20 | 97 | 1013.0 |
| 20260901144627 | 20 | 121 | 0.0 | 0.0 | 0.00 | 0.23 | 0.20 | 97 | 1013.2 |
| 20260901143148 | 20 | 122 | 0.0 | 1.6 | 0.00 | 0.23 | 0.20 | 97 | 1013.3 |
| 20260901141645 | 20 | 117 | 0.0 | 0.0 | 0.00 | 0.23 | 0.20 | 98 | 1013.2 |
| 20260901140140 | 20 | 117 | 0.0 | 0.0 | 0.00 | 0.23 | 0.20 | 97 | 1013.1 |
| 20260901134638 | 21 | 117 | 0.0 | 0.0 | 0.00 | 0.23 | 0.20 | 97 | 1013.0 |
| 20260901133137 | 21 | 117 | 0.0 | 0.0 | 0.00 | 0.23 | 0.20 | 98 | 1013.0 |
| 20260901131631 | 21 | 117 | 0.0 | 0.0 | 0.00 | 0.23 | 0.20 | 98 | 1013.1 |
| 20260901130146 | 20 | 117 | 0.0 | 0.0 | 0.00 | 0.23 | 0.20 | 98 | 1013.2 |
| 20260901124656 | 20 | 117 | 0.0 | 0.0 | 0.00 | 0.23 | 0.20 | 98 | 1013.1 |
| 20260901123131 | 20 | 117 | 0.0 | 0.0 | 0.00 | 0.23 | 0.20 | 98 | 1013.5 |
| 20260901121645 | 20 | 117 | 0.0 | 0.0 | 0.00 | 0.23 | 0.20 | 98 | 1013.4 |
| 20260901120145 | 20 | 117 | 0.0 | 0.0 | 0.00 | 0.23 | 0.20 | 98 | 1013.6 |
| 20260901114652 | 19 | 117 | 0.0 | 0.0 | 0.00 | 0.23 | 0.20 | 97 | 1013.4 |
| 20260901113134 | 19 | 117 | 0.0 | 0.0 | 0.00 | 0.23 | 0.20 | 97 | 1013.9 |
| 20260901111629 | 19 | 117 | 0.0 | 0.0 | 0.00 | 0.23 | 0.20 | 97 | 1013.6 |
| 20260901110128 | 19 | 117 | 0.0 | 0.0 | 0.00 | 0.23 | 0.20 | 97 | 1013.6 |
| 20260901104625 | 19 | 117 | 0.0 | 0.0 | 0.03 | 0.23 | 0.20 | 97 | 1013.5 |
| 20260901103146 | 20 | 117 | 0.0 | 0.0 | 0.10 | 0.23 | 0.20 | 97 | 1013.4 |
| 20260901101621 | 20 | 117 | 0.0 | 0.0 | 0.10 | 0.23 | 0.20 | 97 | 1013.3 |
| 20260901100140 | 20 | 117 | 0.0 | 0.0 | 0.10 | 0.23 | 0.20 | 97 | 1013.5 |
| 20260901094641 | 20 | 122 | 0.0 | 0.0 | 0.08 | 0.20 | 0.18 | 97 | 1013.8 |
| 20260901093202 | 20 | 122 | 1.6 | 3.2 | 0.00 | 0.13 | 0.10 | 98 | 1013.9 |
| 20260901091639 | 19 | 122 | 0.0 | 0.0 | 0.00 | 0.13 | 0.10 | 97 | 1013.5 |
| 20260901090138 | 19 | 122 | 0.0 | 0.0 | 0.00 | 0.13 | 0.10 | 97 | 1013.3 |
| 20260901084656 | 19 | 122 | 0.0 | 0.0 | 0.00 | 0.13 | 0.10 | 97 | 1013.3 |
| 20260901083132 | 19 | 122 | 0.0 | 0.0 | 0.00 | 0.13 | 0.10 | 97 | 1013.5 |
| 20260901081629 | 19 | 122 | 0.0 | 0.0 | 0.00 | 0.13 | 0.10 | 97 | 1013.8 |
| 20260901080124 | 19 | 122 | 0.0 | 0.0 | 0.08 | 0.13 | 0.10 | 97 | 1013.7 |
| 20260901074639 | 19 | 122 | 0.0 | 0.0 | 0.08 | 0.13 | 0.10 | 97 | 1014.0 |
| 20260901073129 | 19 | 122 | 0.0 | 0.0 | 0.08 | 0.13 | 0.10 | 97 | 1014.2 |
| 20260901071633 | 19 | 113 | 0.0 | 0.0 | 0.08 | 0.13 | 0.10 | 97 | 1014.4 |
| 20260901070125 | 19 | 113 | 0.0 | 0.0 | 0.00 | 0.05 | 0.03 | 97 | 1014.4 |
| 20260901064627 | 19 | 113 | 0.0 | 0.0 | 0.00 | 0.05 | 0.03 | 97 | 1014.6 |
| 20260901063141 | 19 | 113 | 0.0 | 0.0 | 0.00 | 0.05 | 0.03 | 97 | 1014.8 |
| 20260901061634 | 19 | 113 | 0.0 | 0.0 | 0.00 | 0.05 | 0.03 | 96 | 1014.8 |
| 20260901060126 | 20 | 73 | 0.0 | 0.0 | 0.03 | 0.05 | 0.03 | 97 | 1015.0 |
| 20260901054639 | 20 | 65 | 0.0 | 0.0 | 0.03 | 0.05 | 0.03 | 97 | 1015.1 |
| 20260901053127 | 20 | 64 | 0.0 | 0.0 | 0.03 | 0.05 | 0.03 | 96 | 1015.3 |
| 20260901051622 | 20 | 65 | 0.0 | 0.0 | 0.03 | 0.05 | 0.03 | 96 | 1015.3 |
| 20260901050136 | 20 | 64 | 0.0 | 1.6 | 0.00 | 0.03 | 0.00 | 96 | 1015.2 |
| 20260901044632 | 20 | 61 | 0.0 | 0.0 | 0.00 | 0.03 | 0.00 | 96 | 1015.3 |
| 20260901043122 | 20 | 61 | 0.0 | 0.0 | 0.00 | 0.03 | 0.00 | 96 | 1015.7 |